Weather in Leba

Poland     54°45′26″N   17°33′29″E
temp.,
°C
wind,
m/s
gust,
m/s
humid.,
%
clouds,
%
prec.,
mm/h
press.,
hPa
HPBL,
m
27 september, mon
mon2723:00+14se5977100 0.0 1022177
02:00+14se597610 0.0 1022190
05:00+13se611764 0.0 1022266
08:00+13se610740 0.0 1022289
11:00+16se79620 0.0 1022369
14:00+18se68535 0.0 1021287
17:00+17se575493 0.0 1021218
20:00+15ese51162100 0.0 1021243
28 september, tue
tue2823:00+14se61263100 0.0 1022459
02:00+13se71267100 0.0 1022360
05:00+12se71171100 0.0 1021319
08:00+12se61071100 0.0 1022344
11:00+14sse7864100 0.0 1023503
14:00+15sse6761100 0.0 1023341
17:00+16sse5764100 0.0 1024231
20:00+15se4766100 0.0 1024232
29 september, wed
wed2923:00+14sse4969100 0.3 1025468
02:00+14sse5967100 0.8 1025452
05:00+13se6969100 0.3 1024357
08:00+13se61068100 0.3 1024396
11:00+14sse71064100 0.0 1024582
14:00+16sse7955100 0.0 1023371
17:00+16se71057100 0.0 1022359
20:00+15se71260100 0.0 1022467
30 september, thu
thu3023:00+14se61164100 0.0 1021537
02:00+12sse61168100 0.0 1021371
05:00+12ssw4681100 0.5 1021366
08:00+13w7984100 2.1 1022801
11:00+13wsw896985 0.1 1024917
14:00+13wsw79550 0.1 10251202
17:00+14w69565 0.0 10251369
20:00+12ssw46605 0.0 1026543
1 october, fri
fri123:00+11s576177 0.0 1026205
02:00+10s6106295 0.0 1025279
05:00+10s61263100 0.0 1024323
08:00+11sse71162100 0.0 1024460
11:00+12s81356100 0.0 1023630
14:00+14s81254100 0.0 1022742
17:00+15ssw6105293 0.0 1021427
20:00+14s61354100 0.0 1020480